Change the Weather History Date:

Friday, November 8, 2013

  Actual Average (KPDC) Record (KPDC)
Temperature  
Mean Temperature 36 °F -  
Max Temperature 50 °F 49 °F 75 °F (1999)
Min Temperature 21 °F 31 °F 2 °F (1991)
Degree Days  
Heating Degree Days 30    
Moisture  
Dew Point 25 °F    
Average Humidity 74    
Maximum Humidity 96    
Minimum Humidity 36    
Precipitation  
Precipitation 0.00 in - - ()
Sea Level Pressure  
Sea Level Pressure 30.16 in    
Wind  
Wind Speed 2 mph (SE)    
Max Wind Speed 14 mph    
Max Gust Speed 25 mph    
Visibility 6 miles    
Events Fog    
Averages and records for this station are not official NWS values.
T = Trace of Precipitation, MM = Missing Value Source: NWS Daily Summary

Daily Weather History Graph

Daily Weather History Graph

Search for Another Location

Airport or City:

Trip Planner

Search our weather history database for the weather conditions in past years. The results will help you decide how hot, cold, wet, or windy it might be!

Date:

Astronomy

Nov. 08, 2013 Rise Set
Actual Time 6:46 AM CST 4:45 PM CST
Civil Twilight 6:16 AM CST 5:15 PM CST
Nautical Twilight 5:42 AM CST 5:49 PM CST
Astronomical Twilight 5:09 AM CST 6:23 PM CST
Moon 11:42 AM CST (11/8) 10:07 PM CST (11/8)
Length of Visible Light 10h 59m
Length of Day
9h 58m
Waxing Crescent, 33% of the Moon is Illuminated
Nov 8
Waxing Crescent
Nov 9
First Quarter
Nov 17
Full
Nov 25
Last Quarter
Dec 2
New

Hourly Weather History & Observations

Time (CST) Temp. Windchill Dew Point Humidity Pressure Visibility Wind Dir Wind Speed Gust Speed Precip Events Conditions
12:53 AM 28.0 °F - 24.1 °F 85% 30.28 in 6.0 mi Calm Calm - N/A   Mostly Cloudy
1:53 AM 27.0 °F - 24.1 °F 89% 30.28 in 5.0 mi Calm Calm - N/A   Clear
2:53 AM 24.1 °F - 21.9 °F 91% 30.29 in 4.0 mi Calm Calm - N/A   Clear
3:28 AM 23.0 °F - 21.0 °F 92% 30.26 in 2.0 mi Calm Calm - N/A   Clear
3:50 AM 24.8 °F - 21.2 °F 86% 30.26 in 4.0 mi Calm Calm - N/A   Clear
3:53 AM 24.1 °F - 21.0 °F 88% 30.29 in 4.0 mi Calm Calm - N/A   Clear
4:53 AM 21.9 °F - 19.9 °F 92% 30.29 in 4.0 mi Calm Calm - N/A   Clear
5:53 AM 21.9 °F - 19.0 °F 89% 30.29 in 3.0 mi Calm Calm - N/A   Clear
6:14 AM 21.9 °F - 19.0 °F 89% 30.26 in 4.0 mi Calm Calm - N/A   Scattered Clouds
6:23 AM 21.9 °F - 19.0 °F 89% 30.27 in 4.0 mi Calm Calm - N/A   Mostly Cloudy
6:51 AM 23.0 °F - 19.4 °F 86% 30.27 in 0.8 mi Calm Calm - N/A   Mist
6:53 AM 23.0 °F - 19.9 °F 88% 30.30 in 0.2 mi Calm Calm - N/A Fog Light Freezing Fog
7:53 AM 26.1 °F - 24.1 °F 92% 30.30 in 0.5 mi Calm Calm - N/A Fog Light Freezing Fog
8:06 AM 26.1 °F - 24.1 °F 92% 30.27 in 1.2 mi Calm Calm - N/A   Mostly Cloudy
8:15 AM 27.0 °F - 25.0 °F 92% 30.26 in 2.0 mi Calm Calm - N/A   Scattered Clouds
8:39 AM 28.0 °F 24.2 °F 27.0 °F 96% 30.25 in 1.0 mi NE 3.5 mph - N/A   Mist
8:46 AM 28.0 °F 24.2 °F 26.1 °F 92% 30.25 in 0.2 mi NE 3.5 mph - N/A Fog Light Freezing Fog
8:53 AM 28.9 °F - 27.0 °F 92% 30.28 in 0.2 mi Calm Calm - N/A Fog Light Freezing Fog
9:11 AM 30.0 °F - 28.0 °F 92% 30.25 in 1.2 mi Calm Calm - N/A   Overcast
9:23 AM 30.0 °F - 28.0 °F 92% 30.24 in 3.0 mi Calm Calm - N/A   Mostly Cloudy
9:53 AM 30.9 °F 27.5 °F 28.9 °F 92% 30.26 in 4.0 mi ENE 3.5 mph - N/A   Partly Cloudy
10:53 AM 36.0 °F 33.3 °F 32.0 °F 86% 30.23 in 9.0 mi NNE 3.5 mph - N/A   Clear
11:53 AM 45.0 °F - 28.9 °F 53% 30.19 in 10.0 mi Calm Calm - N/A   Mostly Cloudy
12:53 PM 46.0 °F 43.1 °F 27.0 °F 47% 30.14 in 10.0 mi Variable 5.8 mph - N/A   Overcast
1:53 PM 48.9 °F - 23.0 °F 36% 30.09 in 10.0 mi Variable 5.8 mph 17.3 mph N/A   Mostly Cloudy
2:53 PM 48.0 °F - 25.0 °F 41% 30.04 in 9.0 mi Variable 4.6 mph - N/A   Clear
3:53 PM 46.9 °F - 26.1 °F 44% 30.00 in 9.0 mi Variable 5.8 mph - N/A   Clear
4:53 PM 46.9 °F - 27.0 °F 46% 29.98 in 10.0 mi North - - N/A   Clear
5:53 PM 46.0 °F 41.4 °F 27.0 °F 47% 29.97 in 10.0 mi SSE 9.2 mph 16.1 mph N/A   Clear
6:53 PM 46.0 °F 41.9 °F 27.0 °F 47% 29.97 in 10.0 mi South 8.1 mph - N/A   Overcast
7:53 PM 46.0 °F 42.5 °F 28.9 °F 51% 29.93 in 10.0 mi Variable 6.9 mph - N/A   Overcast
8:53 PM 48.0 °F - 30.0 °F 50% 29.87 in 10.0 mi South 8.1 mph 19.6 mph N/A   Overcast
9:53 PM 48.9 °F - 30.9 °F 50% 29.82 in 10.0 mi Variable 5.8 mph 19.6 mph N/A   Overcast
10:53 PM 50.0 °F - 32.0 °F 50% 29.79 in 10.0 mi SSW 13.8 mph 25.3 mph N/A   Overcast
11:53 PM 48.9 °F - 32.0 °F 52% 29.76 in 10.0 mi SW 8.1 mph - N/A   Mostly Cloudy